sat.trackr.live / text

‹ back to catalog

STARLINK-35497

NORAD 66241 · 2025-245H

PAYLOAD ACTIVE UNKNOWN

§ Identity

Operator
Country
US
Launch date
2025-10-29
Launch site
AFETR
Launch vehicle
Mass (kg)
RCS (m²)

Purposes: comms

External: N2YO · Heavens-Above · Gunter

§ Orbital elements

Epoch: 2026-09-19T22:08:42.817056Z

Period
93.85 min
Inclination
53.1584°
Eccentricity
0.0001116
Mean motion
15.34400970 rev/d
Perigee alt
461.9 km
Apogee alt
463.5 km
Semi-major
6,840.8 km
B*
1.7730e-4
RAAN
100.3445°
Arg perigee
93.7952°
Mean anomaly
266.3178°
Rev number
5,096

§ Raw data

STARLINK-354971 66241U 25245H   26262.92271779  .00005619  00000+0  17730-3 0  99902 66241  53.1584 100.3445 0001116  93.7952 266.3178 15.34400970 50964

JSON: /api/v1/satellites/66241 · /tle

For live sub-satellite position, see the globe view (requires WebGL).

§ Visibility from observer

Set your observer location to see the next 7 days of passes ≥ 10°. The values pass through the URL so the page stays shareable.

No JS? Fill the form by hand. The geolocation button needs JavaScript.